This is the latest recevied weather packets stored in our database for station/object W8CEN. If no packets are shown the sender has not sent any weather packets the latest 10 day(s).
| Time | Temp. | Humidity | Pressure | Rain* | Wind** | Luminosity | Snow |
|---|---|---|---|---|---|---|---|
| 1777836787 | 17.78° C | 33% | 990.8 hPa | 0 mm | - | 743 W/m² | - |
| 1777836483 | 17.78° C | 33% | 991.2 hPa | 0 mm | - | 745 W/m² | - |
| 1777836178 | 17.78° C | 34% | 990.7 hPa | 0 mm | - | 777 W/m² | - |
| 1777835875 | 17.78° C | 33% | 991.3 hPa | 0 mm | - | 758 W/m² | - |
| 1777835572 | 17.78° C | 32% | 991.2 hPa | 0 mm | - | 783 W/m² | - |
| 1777835269 | 17.78° C | 35% | 991.4 hPa | 0 mm | - | 798 W/m² | - |
| 1777834965 | 17.22° C | 33% | 991.2 hPa | 0 mm | - | 859 W/m² | - |
| 1777834663 | 17.22° C | 33% | 991.5 hPa | 0 mm | - | 221 W/m² | - |
| 1777834358 | 17.78° C | 32% | 991.4 hPa | 0 mm | - | 837 W/m² | - |
| 1777834053 | 17.78° C | 34% | 991.6 hPa | 0 mm | - | 808 W/m² | - |
| 1777833750 | 17.78° C | 33% | 991.6 hPa | 0 mm | - | 831 W/m² | - |
| 1777833446 | 17.22° C | 34% | 991.6 hPa | 0 mm | - | 849 W/m² | - |
| 1777833143 | 17.22° C | 35% | 991.9 hPa | 0 mm | - | 338 W/m² | - |
| 1777832841 | 17.22° C | 36% | 991.7 hPa | 0 mm | - | 958 W/m² | - |
| 1777832540 | 17.78° C | 34% | 991.9 hPa | 0 mm | - | 921 W/m² | - |
| 1777832236 | 17.78° C | 33% | 992 hPa | 0 mm | - | 909 W/m² | - |
| 1777831933 | 17.78° C | 35% | 992 hPa | 0 mm | - | 935 W/m² | - |
| 1777831629 | 17.78° C | 33% | 992.1 hPa | 0 mm | - | 291 W/m² | - |
| 1777831328 | 17.78° C | 32% | 992.2 hPa | 0 mm | - | 931 W/m² | - |
| 1777831024 | 17.22° C | 36% | 992.3 hPa | 0 mm | - | 859 W/m² | - |
| 1777830722 | 17.22° C | 33% | 992.3 hPa | 0 mm | - | 887 W/m² | - |
| 1777830417 | 17.22° C | 33% | 992.3 hPa | 0 mm | - | 945 W/m² | - |
| 1777830115 | 17.22° C | 35% | 992.4 hPa | 0 mm | - | 912 W/m² | - |
| 1777829810 | 17.22° C | 35% | 992.3 hPa | 0 mm | - | 916 W/m² | - |
| 1777829507 | 16.67° C | 37% | 992.4 hPa | 0 mm | - | 891 W/m² | - |
* Rain latest hour (hover to see other rain measurements)
** Current wind speed in m/s (hover to see current wind gust speed)